Location: Peebles
(55.6412°N, 3.1714°W)
Time: 00:38:27
(UTC+01:00)

NOAA 16 DEB - Pass Details

Date: 08 July 2022
Orbit: 836 x 880 km, 98.8° (Epoch: 14 August)

Event Time Altitude Azimuth Distance (km) Brightness Sun altitude
Rises 23:42:02 0° 217° (SW) 3,454 ? -9.3°
Reaches altitude 10° 23:45:24 10° 239° (WSW) 2,528 ? -9.5°
Maximum altitude 23:48:49 16° 276° (W) 2,126 ? -9.7°
Drops below altitude 10° 23:52:16 10° 314° (NW) 2,548 ? -9.9°
Sets 23:55:42 0° 335° (NNW) 3,495 ? -10.0°
